Weather History for KGMU - December, 2012

Change the Weather History Date:

Monday, December 24, 2012

  Actual Average Record
Temperature  
Mean Temperature 45 °F -  
Max Temperature 48 °F 48 °F 67 °F (1992)
Min Temperature 42 °F 31 °F 24 °F (2000)
Degree Days  
Heating Degree Days 20    
Moisture  
Dew Point 41 °F    
Average Humidity 86    
Maximum Humidity 100    
Minimum Humidity 54    
Precipitation  
Precipitation 0.85 in - - ()
Sea Level Pressure  
Sea Level Pressure 29.95 in    
Wind  
Wind Speed 5 mph (SW)    
Max Wind Speed 8 mph    
Max Gust Speed -    
Visibility 4 miles    
Events Rain    
Averages and records for this station are not official NWS values.
T = Trace of Precipitation, MM = Missing Value Source: NWS Daily Summary

Daily Weather History Graph

Daily Weather History Graph

Search for Another Location

Airport or City:

Trip Planner

Search our weather history database for the weather conditions in past years. The results will help you decide how hot, cold, wet, or windy it might be!

Date:

Astronomy

Dec. 24, 2012 Rise Set
Actual Time 7:34 AM EST 5:23 PM EST
Civil Twilight 7:06 AM EST 5:52 PM EST
Nautical Twilight 6:34 AM EST 6:23 PM EST
Astronomical Twilight 6:04 AM EST 6:54 PM EST
Moon 2:47 PM EST (12/24) 4:15 AM EST (12/24)
Length of Visible Light 10h 45m
Length of Day
9h 49m
Waxing Gibbous, 88% of the Moon is Illuminated
Dec 24
Waxing Gibbous
Dec 28
Full
Jan 4
Last Quarter
Jan 11
New
Jan 18
First Quarter

Hourly Weather History & Observations

Time (EST) Temp. Windchill Dew Point Humidity Pressure Visibility Wind Dir Wind Speed Gust Speed Precip Events Conditions
12:53 AM 48.0 °F - 32.0 °F 54% 30.04 in 10.0 mi SSW 6.9 mph - N/A   Clear
1:53 AM 48.0 °F - 32.0 °F 54% 30.02 in 10.0 mi SW 8.1 mph - N/A   Partly Cloudy
2:53 AM 46.0 °F 43.1 °F 32.0 °F 58% 30.01 in 10.0 mi SW 5.8 mph - N/A   Scattered Clouds
3:53 AM 46.9 °F - 32.0 °F 56% 29.99 in 10.0 mi SW 4.6 mph - N/A   Overcast
4:53 AM 46.0 °F 42.5 °F 32.0 °F 58% 29.99 in 10.0 mi SSW 6.9 mph - N/A   Overcast
5:14 AM 46.4 °F 44.3 °F 32.0 °F 57% 29.99 in 10.0 mi WSW 4.6 mph - N/A   Overcast
5:41 AM 46.4 °F 45.2 °F 33.8 °F 62% 29.99 in 10.0 mi WSW 3.5 mph - N/A   Overcast
5:53 AM 46.9 °F - 33.1 °F 59% 29.99 in 10.0 mi South 3.5 mph - N/A   Overcast
6:53 AM 45.0 °F 42.6 °F 36.0 °F 71% 30.00 in 5.0 mi WSW 4.6 mph - 0.01 in Rain Light Rain
7:53 AM 42.1 °F 40.2 °F 39.9 °F 92% 29.98 in 4.0 mi WSW 3.5 mph - 0.15 in Rain Rain
8:12 AM 42.8 °F 40.1 °F 39.2 °F 87% 29.97 in 6.0 mi SSW 4.6 mph - 0.03 in Rain Rain
8:53 AM 42.1 °F 39.2 °F 39.0 °F 89% 29.99 in 10.0 mi WSW 4.6 mph - 0.04 in   Overcast
9:14 AM 42.8 °F - 39.2 °F 87% 29.97 in 2.5 mi Calm Calm - 0.05 in Rain Rain
9:34 AM 42.8 °F 41.1 °F 39.2 °F 87% 29.97 in 3.0 mi SW 3.5 mph - 0.11 in Rain Rain
9:41 AM 42.8 °F - 39.2 °F 87% 29.98 in 1.8 mi Calm Calm - 0.15 in Rain Heavy Rain
9:53 AM 42.1 °F 39.2 °F 39.9 °F 92% 29.98 in 2.0 mi SSE 4.6 mph - 0.21 in Rain Heavy Rain
10:12 AM 42.8 °F 40.1 °F 39.2 °F 87% 29.98 in 1.8 mi South 4.6 mph - 0.07 in Rain Heavy Rain
10:40 AM 42.8 °F 41.1 °F 39.2 °F 87% 29.97 in 2.5 mi SW 3.5 mph - 0.17 in Rain Rain
10:53 AM 42.1 °F 40.2 °F 39.9 °F 92% 29.98 in 2.0 mi South 3.5 mph - 0.21 in Rain Rain
10:59 AM 42.8 °F 41.1 °F 39.2 °F 87% 29.97 in 3.0 mi South 3.5 mph - 0.01 in Rain Rain
11:22 AM 42.8 °F 39.3 °F 41.0 °F 93% 29.96 in 5.0 mi SSE 5.8 mph - 0.02 in Rain Light Rain
11:53 AM 43.0 °F 41.3 °F 41.0 °F 93% 29.95 in 8.0 mi SSW 3.5 mph - 0.02 in   Overcast
12:06 PM 42.8 °F 41.1 °F 41.0 °F 93% 29.95 in 8.0 mi WSW 3.5 mph - N/A   Overcast
12:26 PM 42.8 °F - 42.8 °F 100% 29.94 in 2.0 mi Calm Calm - 0.05 in Rain Rain
12:53 PM 43.0 °F 39.5 °F 42.1 °F 97% 29.92 in 2.0 mi South 5.8 mph - 0.11 in Rain Rain
1:51 PM 44.6 °F 41.4 °F 42.8 °F 93% 29.90 in 6.0 mi South 5.8 mph - 0.09 in   Overcast
1:53 PM 44.1 °F 40.8 °F 43.0 °F 96% 29.91 in 6.0 mi South 5.8 mph - 0.09 in   Overcast
2:12 PM 44.6 °F 43.1 °F 42.8 °F 93% 29.89 in 8.0 mi South 3.5 mph - N/A   Overcast
2:53 PM 45.0 °F 42.6 °F 43.0 °F 93% 29.90 in 8.0 mi WSW 4.6 mph - N/A   Overcast
3:53 PM 46.0 °F - 44.1 °F 93% 29.90 in 8.0 mi Calm Calm - 0.01 in   Overcast
4:53 PM 46.0 °F 43.1 °F 44.1 °F 93% 29.91 in 2.5 mi SSW 5.8 mph - 0.00 in   Overcast
5:04 PM 46.4 °F - 44.6 °F 93% 29.90 in 1.5 mi Calm Calm - N/A   Overcast
5:23 PM 46.4 °F 44.3 °F 44.6 °F 93% 29.90 in 2.5 mi SW 4.6 mph - N/A   Overcast
5:42 PM 46.4 °F 45.2 °F 44.6 °F 93% 29.91 in 1.5 mi WSW 3.5 mph - N/A   Overcast
5:53 PM 46.0 °F 43.9 °F 45.0 °F 96% 29.93 in 2.0 mi WSW 4.6 mph - N/A   Overcast
6:31 PM 46.4 °F 45.2 °F 44.6 °F 93% 29.92 in 1.5 mi WSW 3.5 mph - N/A   Overcast
6:53 PM 46.0 °F 43.9 °F 45.0 °F 96% 29.92 in 1.0 mi SSW 4.6 mph - N/A   Overcast
7:53 PM 46.0 °F - 45.0 °F 96% 29.94 in 1.0 mi Calm Calm - N/A   Mist
8:24 PM 46.4 °F 43.5 °F 44.6 °F 93% 29.95 in 0.8 mi WSW 5.8 mph - N/A   Mist
8:49 PM 46.4 °F 44.3 °F 44.6 °F 93% 29.93 in 1.0 mi SW 4.6 mph - N/A   Mist
8:53 PM 46.9 °F - 45.0 °F 93% 29.94 in 1.2 mi SW 5.8 mph - N/A   Overcast
9:53 PM 46.9 °F - 45.0 °F 93% 29.96 in 1.0 mi West 5.8 mph - N/A   Mist
10:02 PM 46.4 °F 44.3 °F 44.6 °F 93% 29.95 in 0.8 mi West 4.6 mph - N/A   Mist
10:44 PM 46.4 °F 44.3 °F 44.6 °F 93% 29.95 in 1.5 mi West 4.6 mph - N/A   Overcast
10:53 PM 46.0 °F 43.9 °F 45.0 °F 96% 29.96 in 1.8 mi West 4.6 mph - N/A   Overcast
11:02 PM 46.4 °F 43.5 °F 44.6 °F 93% 29.94 in 2.5 mi West 5.8 mph - N/A   Overcast
11:39 PM 46.4 °F 42.9 °F 44.6 °F 93% 29.95 in 1.8 mi West 6.9 mph - N/A   Overcast
11:49 PM 46.4 °F 42.9 °F 44.6 °F 93% 29.95 in 2.0 mi West 6.9 mph - N/A   Overcast
11:53 PM 46.0 °F 42.5 °F 45.0 °F 96% 29.96 in 2.0 mi West 6.9 mph - N/A   Overcast